Tracking 28790 objects as of 18-Apr-2024
HD Live streaming from Space Station
objects crossing your sky now

STARLINK-1797

Track STARLINK-1797 now!
10-day predictions
STARLINK-1797 is classified as:


NORAD ID: 46698
Int'l Code: 2020-073AE
Perigee: 553.4 km
Apogee: 555.3 km
Inclination: 53.1 °
Period: 95.6 minutes
Semi major axis: 6925 km
RCS: Unknown
Launch date: October 18, 2020
Source: United States (US)
Launch site: AIR FORCE EASTERN TEST RANGE (AFETR)
Your satellite tracking list
Your tracking list is empty




NASA's NSSDC Master Catalog

Two Line Element Set (TLE):
1 46698U 20073AE  24109.37963944 -.00000609  00000-0 -21961-4 0  9996
2 46698  53.0554 100.5249 0001377  99.2136 260.9009 15.06401701193088
Source of the keplerian elements: AFSPC